Vorticity
7 7 7 7 8 8 9 9 9 9 9 8 8 7 6 6 5 5 5 4 4 3 3 3 2 2 3 3 3 3 3 4 4 4 5 5 5 5 5 6 6 6 6 6 6 6 6 6 6 6 6 6 6 6 6 6 6 6 6 6 6 6 6 5 5 5 6 6 6
7 7 7 8 9 9 9 9 9 9 8 8 7 6 6 5 5 5 4 4 3 3 3 3 3 3 3 3 3 4 4 5 5 5 5 6 6 6 6 6 6 6 6 6 6 6 6 6 6 6 6 6 6 6 6 6 6 6 6 6 6 6 6 6 5 5 5 5 6
7 8 9 9 9 9 9 9 8 8 7 7 6 5 5 5 4 4 4 3 3 3 3 3 3 3 4 4 4 5 5 5 5 6 6 6 6 6 6 6 6 6 6 6 6 6 6 6 6 6 6 6 6 6 6 6 6 6 6 6 6 6 6 5 5 5 5 5 5
8 9 10 10 9 9 9 8 7 7 6 6 5 5 4 4 3 3 3 3 3 3 3 3 4 4 4 5 5 5 5 6 6 6 6 6 6 6 6 6 6 6 6 6 6 6 6 6 6 6 6 6 6 6 6 6 6 6 6 6 6 5 5 5 5 5 5 5 5
10 10 10 9 9 8 8 7 7 6 5 5 4 4 4 3 3 3 3 3 3 3 4 4 4 4 5 5 5 5 6 6 6 6 6 6 6 6 6 6 6 6 6 6 6 6 6 6 6 6 6 6 6 6 6 5 6 6 6 6 5 5 5 5 5 5 5 5 5
10 10 9 9 8 7 7 6 5 5 4 4 3 3 3 3 3 3 3 3 4 4 4 5 5 5 5 5 6 6 6 6 6 6 6 6 6 6 6 6 6 6 6 6 6 6 6 6 6 6 6 6 6 6 5 5 6 6 6 6 5 5 5 5 5 5 5 5 5
10 9 8 8 7 6 6 5 4 4 3 3 3 3 3 3 3 3 4 4 4 4 5 5 6 6 6 6 6 6 6 6 6 6 6 6 6 6 6 6 6 6 6 6 6 6 6 6 6 6 6 6 6 6 6 6 6 6 6 6 5 5 5 5 5 4 4 5 5
9 8 8 7 6 5 5 4 3 3 3 3 3 3 3 4 4 4 4 5 5 5 5 6 6 6 6 6 6 6 6 6 6 6 6 6 6 6 6 6 6 6 6 6 6 7 6 6 6 6 6 6 6 6 6 6 6 6 5 5 5 5 5 4 4 4 4 4 5
8 7 7 6 5 4 3 3 3 3 3 3 3 3 4 4 4 5 5 5 5 5 6 6 6 6 6 6 6 6 6 6 6 6 6 6 6 6 6 6 6 6 6 7 7 7 6 6 6 6 6 6 6 6 6 6 6 6 5 5 5 5 5 4 4 4 4 4 5
7 6 5 4 4 3 3 2 3 3 3 3 4 4 4 4 5 5 5 5 5 6 6 6 6 6 6 6 6 6 6 6 6 6 6 6 6 6 6 6 6 7 7 7 7 7 6 6 6 6 6 6 6 6 6 6 6 5 5 5 5 5 4 4 4 4 5 5 5
6 5 4 3 3 3 2 3 3 3 3 4 4 4 4 5 5 5 5 6 6 6 6 6 6 6 6 6 6 6 6 5 5 5 6 6 6 6 6 6 7 7 7 7 7 7 6 6 6 6 6 6 6 6 6 6 5 5 5 5 4 4 4 4 4 4 4 5 5
4 3 3 3 2 3 3 3 3 4 4 4 4 5 5 5 5 5 5 6 6 6 6 6 6 6 6 5 5 5 5 5 5 6 6 6 6 6 7 7 7 7 7 7 7 7 7 6 6 6 6 6 6 6 6 6 5 5 5 5 4 4 4 4 4 4 4 4 4
3 3 2 2 3 3 3 3 4 4 4 4 5 5 5 5 5 5 6 6 6 6 5 5 5 5 5 5 5 5 5 5 6 6 6 6 7 7 7 7 7 7 7 7 7 7 7 7 7 6 6 6 6 6 6 5 5 5 5 5 4 4 4 4 4 4 4 4 4
2 2 3 3 3 3 3 4 4 4 4 5 5 5 5 5 5 5 5 5 5 5 5 5 5 5 5 5 5 5 5 6 6 6 7 7 7 7 7 7 7 7 7 7 7 7 7 7 7 7 6 6 6 6 6 5 5 5 5 4 4 4 4 4 4 4 4 4 5
3 3 3 3 3 4 4 4 4 4 4 5 5 5 5 5 5 5 5 5 5 5 5 5 5 5 5 5 5 5 6 6 6 7 7 7 8 8 8 7 7 7 7 7 7 7 7 7 7 7 7 6 6 6 5 5 5 5 4 4 4 4 4 4 4 4 5 5 5
3 4 4 4 4 4 4 4 4 4 4 5 5 5 5 5 5 5 5 5 5 5 5 5 5 5 5 5 6 6 6 7 7 7 8 8 8 8 8 8 8 8 8 7 7 7 7 7 7 7 7 6 6 5 5 5 5 5 4 4 4 4 4 4 4 5 5 6 7
4 4 4 4 4 4 4 4 4 4 4 4 5 5 5 5 5 5 5 5 5 5 5 5 5 5 6 6 6 7 7 7 8 8 8 8 8 8 8 8 8 8 8 7 7 7 7 7 7 7 6 6 5 5 5 5 5 4 4 4 4 4 4 4 5 5 6 8 9
4 4 4 4 4 4 4 4 4 4 4 4 5 5 5 5 5 5 5 5 5 5 5 6 6 6 6 6 7 7 8 8 8 9 9 9 9 8 8 8 8 8 8 8 7 7 7 7 7 6 6 6 5 5 5 4 4 4 4 4 4 4 4 5 6 7 8 10 12
4 4 4 3 4 4 4 4 4 4 4 4 5 5 5 5 5 5 5 6 5 5 5 5 6 6 6 7 7 8 8 9 9 9 9 9 9 9 9 8 8 8 8 8 7 7 7 6 6 6 6 5 5 5 5 4 4 4 4 4 4 4 5 6 7 8 10 12 13
3 3 3 3 3 4 4 4 4 4 4 4 5 5 5 5 5 5 5 5 5 5 5 5 6 7 7 8 8 9 9 10 10 10 10 9 9 9 9 8 8 8 8 7 7 7 7 6 6 6 5 5 5 5 5 5 4 4 4 4 4 5 6 7 9 10 12 14 16
3 3 3 3 3 4 4 4 4 4 4 5 5 5 5 5 5 5 5 5 5 5 5 6 7 7 8 9 9 10 10 10 11 10 10 9 9 9 8 8 8 7 7 7 7 7 6 6 6 5 5 5 5 5 4 4 4 4 4 4 5 6 7 9 11 12 14 16 17
3 3 3 3 3 4 4 4 4 4 5 5 5 5 5 5 5 5 5 5 5 5 6 7 8 8 9 10 11 11 11 11 11 10 10 9 9 8 8 8 7 7 7 7 7 6 6 6 5 5 5 5 5 4 4 4 4 4 4 5 6 7 9 11 13 15 16 17 18
3 3 3 3 3 4 4 4 4 5 5 5 5 5 4 4 4 4 5 5 5 6 7 8 9 10 11 11 12 11 11 11 10 10 9 9 8 8 8 7 7 7 7 7 6 6 6 6 5 5 5 4 4 4 4 4 4 4 5 6 7 9 11 13 15 17 18 19 19
3 3 3 3 4 4 4 4 4 5 5 4 4 4 4 4 4 5 5 5 7 8 9 10 11 12 12 12 12 12 11 10 10 9 9 8 8 7 7 7 7 7 7 6 6 6 6 5 5 5 5 4 4 4 4 4 4 5 6 7 9 11 13 15 17 18 19 19 20
3 3 3 3 4 4 4 4 4 4 4 4 4 4 4 4 4 5 6 7 8 10 11 12 13 13 13 13 12 12 11 10 9 9 8 8 7 7 7 7 7 7 6 6 6 6 5 5 5 4 4 4 4 4 4 5 5 7 8 10 12 13 15 17 19 20 20 20 20
3 3 3 4 4 4 4 4 4 4 4 4 4 4 4 4 5 6 7 9 10 12 13 14 14 14 13 12 11 11 10 10 9 8 8 7 7 7 7 7 7 7 6 6 6 5 5 5 5 4 4 4 4 4 5 6 7 9 11 13 15 16 17 18 19 20 21 21 20
3 3 3 4 4 4 4 4 4 4 4 3 4 4 4 5 6 8 10 11 13 14 14 15 14 13 12 11 10 10 9 9 8 8 7 7 7 7 7 7 6 6 6 6 5 5 5 5 4 4 4 4 4 5 6 7 9 11 14 16 17 19 20 20 20 20 20 21 20
3 3 4 4 4 4 4 4 4 4 3 3 4 4 5 7 9 11 12 14 14 15 15 15 13 12 11 10 10 9 8 8 7 7 7 7 7 6 6 6 6 6 6 5 5 5 4 4 4 4 4 4 5 6 8 9 11 14 16 18 19 20 21 21 21 20 20 20 19
3 3 4 4 4 4 4 4 3 3 3 4 4 6 7 9 12 13 15 15 16 15 15 14 12 11 10 10 9 8 8 7 7 7 6 6 6 6 6 6 5 5 5 5 5 4 4 4 4 4 4 5 6 8 10 13 14 16 18 20 21 21 22 22 21 21 20 19 18
3 4 4 4 4 4 4 3 3 3 4 4 6 8 10 13 14 16 16 16 16 15 13 11 10 10 9 9 8 8 7 7 7 6 6 6 6 6 6 6 5 5 5 5 4 4 4 4 4 5 6 7 9 11 13 15 17 19 20 21 22 22 22 22 21 20 19 18 17
3 4 4 4 4 4 3 3 3 4 5 7 9 12 14 16 17 17 17 16 14 13 11 10 10 9 9 8 8 7 7 6 6 6 6 6 6 5 5 5 5 5 5 4 4 4 4 4 5 6 7 9 11 13 16 18 20 21 22 22 23 23 22 21 20 19 18 17 15
4 4 4 4 4 3 3 3 4 6 8 10 13 15 17 18 17 16 15 14 12 11 10 10 9 8 8 7 7 6 6 6 6 6 6 5 5 5 5 5 5 5 4 4 4 4 5 6 7 8 10 12 14 16 18 20 22 23 23 23 23 22 21 20 19 18 16 15 14
4 4 4 4 3 3 3 4 6 9 11 14 16 18 18 17 16 15 13 12 11 10 10 9 8 8 7 6 6 5 5 5 5 5 5 5 5 5 5 5 5 4 4 4 5 6 7 8 9 11 12 15 17 19 21 22 23 23 24 24 23 22 20 19 17 16 15 14 12
4 4 4 3 3 4 5 7 10 13 15 18 19 19 18 16 14 13 12 11 10 9 9 8 7 6 5 5 4 4 4 5 5 5 5 5 5 5 4 4 4 4 5 5 6 8 9 10 12 13 15 18 20 21 22 23 24 24 24 23 22 20 19 17 16 14 13 12 11
4 4 3 3 4 6 8 11 14 17 19 19 19 18 16 14 13 12 10 9 8 8 7 6 5 4 4 4 4 4 5 5 6 6 6 5 5 5 4 4 5 5 6 7 8 10 11 13 15 16 18 20 22 23 24 24 24 24 23 21 20 19 17 16 14 13 12 11 10
3 3 4 4 7 9 13 16 18 19 20 19 17 15 14 12 11 10 9 7 6 5 5 4 3 3 4 4 5 6 6 6 6 6 6 5 5 5 5 5 5 6 8 9 10 12 14 16 17 19 20 22 23 24 24 24 23 22 21 20 18 17 16 14 13 12 11 10 10
3 4 5 7 11 14 17 20 20 20 19 17 15 13 11 10 9 7 6 5 4 4 3 3 3 4 5 6 7 7 7 7 6 6 5 5 5 5 5 5 7 8 9 11 13 14 16 18 20 21 22 23 23 24 24 23 22 21 20 18 17 15 14 13 12 11 11 10 9
4 6 9 12 16 19 20 21 20 18 16 14 12 10 9 7 6 5 4 3 3 3 3 4 5 6 7 8 8 8 8 7 7 6 5 5 5 6 6 7 8 10 12 13 15 17 19 20 22 23 23 24 23 23 23 22 20 19 18 17 15 14 13 12 12 11 10 10 9
7 10 14 18 20 21 21 19 17 15 13 11 9 7 6 5 4 3 3 4 4 5 5 7 8 9 9 9 9 8 8 7 6 6 5 5 6 7 8 8 10 12 14 16 18 19 21 22 23 24 24 24 23 22 21 20 19 18 17 16 14 13 13 12 11 11 10 9 9
12 15 19 22 22 20 18 16 14 11 9 7 6 5 4 3 3 4 5 6 7 8 9 10 10 10 10 10 9 8 7 6 6 6 6 6 7 8 10 11 12 14 16 19 20 22 23 23 24 24 24 23 22 21 20 19 17 16 16 15 14 13 12 11 11 10 10 9 9
17 20 22 22 20 18 15 12 10 8 6 5 4 4 4 4 5 7 8 9 10 11 11 11 10 10 9 9 8 7 7 6 7 7 7 8 8 10 12 13 15 16 19 21 23 23 24 24 24 24 23 22 21 20 19 17 16 15 15 14 13 12 11 11 10 10 9 9 9
Height
5730 5729 5728 5727 5726 5724 5724 5722 5721 5720 5719 5718 5717 5716 5715 5714 5713 5712 5711 5709 5708 5706 5704 5703 5701 5699 5697 5695 5694 5692 5690 5688 5686 5684 5682 5680 5678 5675 5673 5671 5669 5666 5664 5661 5659 5657 5654 5652 5649 5646 5644 5641 5639 5636 5633 5630 5627 5624 5621 5618 5615 5612 5609 5606 5602 5599 5596 5592 5589
5728 5727 5725 5724 5723 5722 5721 5720 5719 5718 5717 5716 5715 5714 5713 5712 5711 5709 5708 5706 5705 5703 5701 5699 5698 5696 5694 5692 5690 5688 5686 5684 5682 5680 5678 5676 5674 5671 5669 5667 5664 5662 5659 5657 5654 5652 5650 5647 5644 5642 5639 5636 5634 5631 5628 5624 5622 5619 5616 5613 5609 5606 5603 5600 5597 5593 5590 5586 5583
5725 5724 5723 5722 5721 5720 5719 5718 5717 5716 5715 5714 5713 5712 5710 5709 5708 5707 5705 5704 5702 5700 5698 5696 5694 5692 5690 5689 5686 5684 5683 5680 5678 5676 5674 5672 5669 5667 5665 5662 5660 5658 5655 5653 5650 5648 5645 5643 5640 5637 5634 5631 5629 5626 5623 5619 5616 5614 5611 5607 5604 5600 5597 5594 5591 5588 5584 5580 5577
5724 5722 5721 5720 5719 5718 5717 5716 5715 5714 5713 5712 5710 5709 5708 5707 5705 5704 5702 5700 5699 5697 5695 5693 5691 5689 5687 5685 5683 5681 5679 5677 5674 5672 5670 5668 5665 5663 5660 5658 5655 5653 5650 5648 5645 5643 5640 5638 5635 5632 5629 5626 5624 5620 5617 5614 5611 5608 5605 5602 5599 5595 5592 5588 5585 5582 5578 5574 5571
5721 5720 5719 5718 5716 5715 5714 5713 5712 5711 5710 5709 5708 5707 5705 5704 5702 5700 5699 5697 5695 5693 5691 5689 5687 5685 5683 5681 5679 5677 5675 5673 5670 5668 5666 5664 5661 5659 5656 5654 5651 5649 5646 5643 5641 5638 5635 5633 5630 5627 5624 5621 5618 5615 5612 5609 5606 5603 5599 5596 5593 5589 5586 5582 5579 5575 5572 5568 5564
5719 5718 5717 5715 5714 5713 5712 5711 5710 5709 5708 5707 5705 5704 5703 5701 5699 5698 5696 5694 5692 5690 5688 5686 5684 5682 5680 5678 5675 5673 5671 5669 5666 5664 5662 5659 5657 5654 5652 5649 5646 5644 5641 5639 5636 5633 5630 5628 5625 5622 5619 5616 5613 5610 5606 5604 5600 5597 5594 5590 5587 5584 5580 5576 5573 5569 5566 5562 5558
5717 5716 5714 5713 5712 5711 5710 5709 5708 5706 5705 5704 5703 5701 5700 5698 5696 5694 5692 5690 5689 5686 5684 5682 5680 5678 5676 5674 5672 5669 5667 5665 5662 5660 5658 5655 5652 5650 5647 5644 5642 5639 5636 5634 5631 5628 5625 5622 5619 5617 5614 5611 5608 5604 5601 5598 5595 5592 5589 5585 5581 5578 5574 5570 5566 5563 5559 5556 5552
5714 5713 5712 5711 5709 5709 5707 5706 5705 5704 5703 5701 5700 5698 5697 5695 5693 5691 5689 5687 5685 5683 5681 5679 5676 5674 5672 5670 5668 5665 5663 5661 5658 5656 5653 5651 5648 5645 5643 5640 5637 5634 5631 5629 5626 5623 5620 5617 5614 5611 5608 5605 5602 5599 5596 5593 5589 5586 5583 5579 5576 5572 5568 5564 5560 5556 5553 5549 5546
5712 5711 5710 5709 5707 5706 5705 5704 5703 5701 5700 5699 5697 5695 5693 5691 5689 5687 5685 5684 5681 5679 5677 5675 5673 5670 5668 5666 5664 5661 5659 5656 5654 5651 5649 5646 5644 5641 5638 5635 5632 5629 5626 5624 5621 5618 5615 5612 5609 5606 5603 5600 5597 5594 5590 5587 5584 5580 5577 5573 5570 5566 5562 5558 5554 5550 5546 5542 5539
5710 5709 5707 5706 5705 5704 5702 5701 5700 5699 5697 5695 5694 5692 5690 5688 5686 5684 5682 5680 5678 5675 5673 5671 5669 5666 5664 5662 5659 5657 5654 5652 5649 5647 5644 5641 5639 5636 5633 5630 5627 5624 5621 5619 5616 5613 5610 5607 5604 5601 5598 5594 5592 5588 5585 5581 5578 5575 5571 5567 5564 5560 5556 5552 5548 5544 5540 5536 5532
5708 5706 5705 5704 5702 5701 5700 5699 5697 5696 5694 5692 5690 5689 5686 5684 5682 5680 5678 5676 5674 5672 5669 5667 5665 5662 5660 5658 5655 5653 5650 5647 5645 5642 5639 5637 5634 5631 5628 5625 5622 5619 5616 5613 5610 5608 5604 5602 5599 5596 5593 5589 5586 5583 5579 5576 5573 5569 5565 5561 5558 5554 5550 5546 5541 5537 5533 5529 5525
5705 5704 5703 5701 5700 5699 5697 5696 5694 5693 5691 5689 5687 5685 5683 5681 5679 5676 5674 5672 5670 5668 5665 5663 5661 5658 5656 5653 5651 5648 5645 5643 5640 5637 5634 5632 5629 5626 5623 5620 5617 5614 5611 5608 5605 5602 5599 5596 5594 5591 5588 5584 5581 5578 5574 5570 5567 5563 5559 5555 5552 5548 5544 5540 5535 5531 5526 5522 5518
5703 5701 5700 5699 5697 5696 5694 5693 5691 5689 5688 5685 5684 5681 5679 5677 5675 5673 5670 5668 5666 5664 5661 5659 5656 5654 5651 5649 5646 5644 5641 5638 5635 5633 5630 5627 5624 5621 5618 5615 5612 5609 5606 5603 5600 5597 5594 5591 5589 5586 5583 5579 5575 5572 5568 5565 5561 5557 5554 5549 5545 5541 5537 5533 5529 5524 5520 5515 5511
5700 5699 5697 5696 5694 5693 5691 5690 5688 5686 5684 5682 5680 5678 5676 5674 5671 5669 5667 5664 5662 5659 5657 5654 5652 5650 5647 5644 5642 5639 5636 5634 5631 5628 5625 5622 5619 5616 5613 5610 5607 5604 5601 5598 5595 5592 5589 5586 5583 5580 5577 5574 5570 5566 5563 5559 5555 5551 5547 5543 5539 5535 5531 5527 5522 5518 5514 5509 5505
5697 5696 5694 5693 5691 5690 5688 5687 5685 5683 5681 5679 5676 5674 5672 5670 5668 5665 5663 5660 5658 5655 5653 5650 5648 5645 5643 5640 5637 5634 5632 5629 5626 5623 5620 5617 5614 5611 5608 5605 5602 5599 5596 5593 5590 5587 5584 5581 5578 5574 5571 5568 5564 5561 5557 5553 5549 5545 5541 5537 5533 5529 5524 5520 5515 5511 5507 5502 5498
5694 5693 5692 5690 5689 5687 5685 5683 5681 5679 5677 5675 5673 5670 5668 5666 5664 5661 5659 5656 5654 5651 5649 5646 5644 5641 5638 5635 5633 5630 5627 5624 5621 5618 5615 5612 5609 5606 5603 5600 5597 5594 5591 5588 5585 5582 5579 5575 5572 5569 5566 5562 5559 5555 5551 5547 5543 5539 5535 5531 5527 5522 5518 5514 5509 5504 5500 5495 5491
5692 5690 5689 5687 5685 5684 5682 5680 5678 5676 5674 5671 5669 5667 5664 5662 5660 5657 5655 5653 5650 5647 5644 5642 5639 5637 5634 5631 5628 5625 5622 5619 5616 5613 5610 5607 5604 5601 5598 5595 5592 5589 5586 5583 5580 5577 5573 5570 5567 5563 5560 5556 5553 5549 5545 5541 5538 5533 5529 5525 5520 5516 5511 5507 5502 5498 5493 5489 5484
5689 5687 5685 5684 5682 5680 5678 5676 5674 5672 5670 5668 5665 5663 5660 5658 5656 5653 5651 5648 5646 5643 5640 5638 5635 5632 5629 5626 5623 5620 5617 5614 5611 5608 5605 5602 5599 5596 5593 5590 5587 5584 5581 5578 5574 5571 5568 5565 5561 5558 5554 5550 5547 5543 5540 5536 5532 5528 5523 5519 5514 5510 5505 5500 5496 5491 5486 5482 5477
5685 5684 5682 5680 5678 5676 5674 5672 5670 5668 5666 5664 5661 5659 5657 5654 5652 5649 5647 5644 5642 5639 5636 5633 5630 5627 5624 5621 5618 5615 5612 5609 5606 5603 5600 5597 5594 5591 5588 5585 5582 5579 5576 5573 5569 5566 5563 5559 5556 5552 5549 5545 5541 5538 5534 5530 5526 5522 5518 5513 5509 5504 5499 5494 5489 5484 5480 5475 5470
5682 5680 5679 5677 5675 5673 5671 5669 5666 5664 5662 5660 5657 5655 5653 5650 5648 5645 5643 5640 5637 5634 5631 5629 5625 5623 5619 5616 5614 5610 5607 5604 5602 5598 5595 5592 5589 5586 5583 5580 5577 5574 5570 5567 5564 5560 5557 5553 5550 5546 5543 5539 5536 5532 5528 5524 5520 5516 5511 5507 5502 5498 5493 5488 5483 5478 5473 5468 5464
5679 5677 5675 5673 5671 5669 5667 5665 5663 5660 5658 5656 5654 5651 5649 5646 5644 5641 5638 5635 5633 5630 5627 5624 5621 5618 5615 5612 5609 5605 5603 5599 5597 5594 5590 5587 5584 5581 5578 5575 5572 5569 5565 5562 5558 5555 5551 5548 5544 5541 5537 5534 5530 5526 5523 5519 5514 5510 5505 5501 5496 5492 5487 5482 5477 5472 5467 5462 5457
5675 5674 5672 5670 5668 5666 5664 5661 5659 5657 5654 5652 5649 5647 5644 5642 5639 5637 5634 5631 5628 5625 5622 5619 5616 5613 5610 5607 5604 5601 5598 5595 5592 5589 5586 5583 5579 5576 5573 5570 5567 5564 5560 5556 5553 5549 5545 5542 5539 5535 5532 5528 5524 5520 5516 5512 5508 5504 5499 5495 5490 5485 5480 5475 5470 5466 5461 5456 5451
5672 5670 5668 5666 5664 5662 5660 5658 5655 5653 5650 5648 5645 5643 5640 5638 5635 5632 5629 5626 5624 5621 5618 5614 5612 5609 5605 5602 5599 5596 5593 5590 5587 5584 5581 5578 5575 5571 5568 5565 5562 5559 5555 5551 5547 5544 5540 5536 5533 5529 5526 5522 5519 5515 5511 5506 5502 5497 5493 5488 5484 5479 5474 5469 5464 5460 5455 5450 5445
5669 5667 5665 5663 5661 5659 5656 5654 5652 5649 5647 5644 5642 5639 5636 5634 5631 5628 5625 5622 5619 5616 5613 5610 5607 5604 5601 5598 5594 5592 5589 5586 5583 5579 5576 5573 5570 5567 5564 5560 5556 5553 5549 5546 5542 5538 5534 5530 5527 5523 5519 5516 5512 5509 5504 5500 5495 5491 5486 5481 5477 5472 5468 5463 5458 5454 5449 5445 5440
5665 5664 5662 5659 5657 5655 5653 5650 5648 5645 5643 5640 5638 5635 5632 5629 5626 5624 5620 5618 5614 5612 5609 5605 5602 5599 5596 5593 5590 5587 5584 5581 5578 5575 5572 5569 5565 5562 5559 5555 5552 5548 5544 5540 5536 5532 5528 5524 5520 5516 5513 5509 5506 5502 5498 5493 5489 5484 5479 5475 5470 5466 5461 5457 5452 5448 5443 5439 5435
5662 5660 5658 5656 5654 5652 5649 5647 5644 5641 5639 5636 5634 5631 5628 5625 5622 5619 5616 5613 5610 5607 5604 5601 5598 5595 5592 5589 5586 5583 5579 5576 5574 5571 5568 5564 5561 5557 5554 5550 5546 5543 5539 5535 5531 5527 5523 5519 5514 5510 5506 5502 5499 5495 5491 5487 5482 5477 5473 5468 5464 5459 5455 5451 5446 5442 5437 5433 5429
5659 5657 5655 5653 5650 5648 5645 5643 5640 5638 5635 5632 5629 5626 5624 5621 5618 5615 5612 5609 5606 5603 5599 5597 5594 5590 5587 5584 5581 5579 5575 5572 5569 5566 5563 5560 5556 5553 5549 5545 5541 5537 5534 5529 5525 5521 5517 5513 5509 5504 5499 5495 5491 5488 5484 5480 5475 5471 5466 5462 5457 5453 5448 5444 5440 5436 5432 5428 5423
5656 5654 5651 5649 5647 5644 5642 5639 5636 5634 5631 5628 5625 5622 5619 5616 5614 5610 5607 5604 5601 5598 5595 5592 5589 5586 5583 5580 5577 5574 5571 5568 5565 5562 5558 5555 5551 5548 5544 5540 5536 5532 5528 5524 5520 5515 5511 5507 5503 5498 5494 5489 5485 5481 5477 5473 5469 5464 5460 5455 5451 5446 5442 5438 5434 5430 5426 5422 5418
5652 5650 5648 5645 5643 5640 5638 5635 5632 5629 5627 5624 5621 5618 5615 5612 5609 5606 5603 5600 5597 5594 5591 5588 5585 5582 5579 5576 5573 5570 5567 5564 5560 5557 5554 5550 5546 5543 5539 5535 5531 5526 5522 5518 5514 5510 5505 5501 5497 5492 5488 5483 5479 5474 5470 5467 5462 5458 5454 5449 5444 5440 5436 5432 5428 5424 5420 5416 5413
5649 5646 5644 5642 5639 5636 5634 5631 5628 5625 5623 5619 5617 5614 5611 5608 5605 5602 5599 5596 5593 5589 5587 5584 5581 5578 5574 5572 5569 5565 5562 5559 5555 5552 5549 5545 5541 5537 5534 5529 5525 5521 5517 5512 5508 5504 5499 5495 5491 5486 5482 5477 5473 5468 5464 5460 5456 5451 5447 5443 5438 5434 5430 5426 5422 5418 5414 5410 5407
5645 5643 5640 5638 5635 5633 5630 5627 5624 5621 5618 5615 5612 5609 5606 5604 5600 5597 5594 5592 5589 5585 5582 5579 5577 5574 5570 5567 5564 5561 5558 5554 5550 5547 5543 5540 5536 5532 5528 5524 5520 5515 5511 5507 5502 5498 5494 5489 5484 5480 5476 5471 5467 5462 5458 5454 5449 5445 5441 5436 5432 5428 5424 5420 5416 5412 5409 5405 5401
5641 5639 5636 5634 5631 5629 5626 5623 5620 5617 5614 5611 5608 5605 5602 5599 5596 5593 5590 5587 5584 5581 5578 5575 5572 5569 5566 5563 5560 5557 5553 5550 5546 5542 5538 5534 5531 5527 5523 5519 5514 5510 5505 5501 5496 5492 5488 5483 5479 5474 5469 5465 5461 5456 5452 5448 5443 5439 5435 5430 5426 5422 5418 5414 5411 5407 5403 5400 5396
5638 5635 5633 5630 5627 5624 5621 5619 5616 5613 5610 5607 5604 5601 5598 5595 5592 5589 5586 5584 5581 5578 5574 5571 5569 5565 5562 5559 5556 5552 5548 5545 5541 5538 5534 5529 5526 5522 5518 5514 5509 5504 5500 5495 5491 5486 5482 5477 5472 5468 5463 5459 5455 5450 5446 5441 5437 5433 5429 5425 5421 5417 5413 5409 5406 5402 5399 5395 5391
5634 5631 5629 5626 5623 5620 5617 5614 5611 5609 5606 5603 5600 5597 5594 5591 5588 5585 5582 5579 5577 5574 5570 5567 5564 5561 5558 5554 5551 5548 5544 5540 5536 5532 5529 5525 5521 5517 5513 5508 5504 5499 5494 5489 5484 5480 5475 5471 5466 5461 5457 5453 5448 5444 5440 5436 5431 5427 5423 5419 5415 5412 5408 5405 5401 5398 5394 5391 5387
5630 5627 5624 5622 5619 5616 5613 5610 5607 5604 5602 5599 5596 5593 5590 5587 5584 5582 5579 5575 5573 5569 5566 5563 5560 5556 5553 5549 5546 5543 5539 5535 5531 5527 5523 5520 5516 5512 5507 5503 5498 5493 5488 5483 5478 5474 5469 5464 5459 5454 5450 5446 5442 5438 5434 5430 5426 5422 5418 5414 5410 5407 5404 5400 5397 5393 5389 5386 5382
5626 5624 5621 5618 5615 5612 5609 5606 5604 5601 5598 5595 5592 5589 5586 5584 5580 5578 5575 5572 5569 5565 5562 5559 5555 5552 5548 5545 5541 5538 5534 5530 5526 5522 5518 5514 5511 5507 5502 5497 5492 5487 5483 5477 5472 5467 5462 5458 5453 5448 5444 5439 5435 5431 5428 5424 5420 5417 5414 5410 5406 5403 5399 5396 5393 5389 5385 5382 5378
5622 5619 5617 5614 5611 5608 5605 5603 5600 5597 5594 5591 5589 5586 5583 5580 5577 5574 5570 5568 5565 5562 5558 5555 5552 5548 5544 5541 5537 5533 5529 5525 5521 5517 5513 5509 5505 5501 5497 5492 5486 5481 5476 5471 5466 5461 5455 5451 5446 5442 5437 5433 5429 5425 5422 5418 5415 5411 5409 5405 5402 5399 5395 5392 5389 5385 5382 5378 5374
5618 5615 5613 5610 5607 5604 5601 5599 5596 5593 5590 5588 5585 5582 5579 5576 5573 5570 5567 5564 5561 5558 5554 5551 5547 5544 5540 5536 5532 5529 5524 5520 5516 5512 5508 5503 5499 5494 5490 5486 5480 5475 5469 5465 5460 5454 5449 5444 5440 5435 5431 5427 5423 5420 5416 5413 5410 5406 5404 5401 5398 5394 5391 5388 5385 5381 5378 5374 5370
5614 5611 5609 5606 5603 5600 5598 5595 5592 5589 5587 5584 5581 5578 5575 5572 5569 5566 5562 5559 5556 5553 5550 5546 5543 5539 5535 5531 5528 5524 5520 5515 5511 5507 5502 5498 5493 5488 5484 5479 5474 5468 5463 5459 5454 5448 5443 5438 5434 5429 5425 5421 5418 5414 5411 5408 5405 5402 5399 5396 5394 5390 5387 5383 5380 5377 5374 5369 5366
5610 5607 5605 5602 5599 5597 5594 5591 5589 5586 5583 5580 5577 5574 5571 5568 5565 5562 5558 5555 5551 5548 5545 5542 5538 5534 5530 5527 5523 5519 5515 5510 5505 5501 5496 5492 5486 5481 5477 5472 5467 5462 5456 5452 5447 5443 5437 5432 5427 5423 5419 5416 5412 5409 5406 5403 5400 5397 5394 5391 5389 5386 5383 5379 5376 5373 5369 5366 5362
5606 5604 5601 5598 5596 5593 5590 5588 5585 5582 5579 5576 5573 5570 5567 5564 5561 5558 5554 5551 5547 5544 5540 5537 5533 5529 5525 5521 5518 5514 5510 5505 5500 5495 5490 5485 5480 5475 5470 5465 5461 5456 5450 5445 5441 5437 5432 5427 5422 5418 5414 5410 5407 5404 5400 5398 5395 5392 5389 5386 5384 5381 5378 5375 5371 5368 5365 5362 5358